GW4730 Weather Reports


time (UTC)temp
F
wind
direction
speed
knots
gust
knots
rain 1hr
in
rain 24hr
in
rain mn
in
humidity
%
barometer
mb
20260507183342 64 108 3.5 6.1 0.00 0.00 0.00 41 1010.6
20260507182839 64 105 1.7 5.2 0.00 0.00 0.00 47 1010.6
20260507182335 65 209 3.5 6.1 0.00 0.00 0.00 41 1010.8
20260507181831 65 1 5.2 6.1 0.00 0.00 0.00 45 1010.7
20260507181327 65 28 1.7 3.5 0.00 0.00 0.00 41 1010.8
20260507180825 64 351 3.5 3.5 0.00 0.00 0.00 49 1010.7
20260507180321 65 318 3.5 7.8 0.00 0.00 0.00 44 1010.9
20260507175817 65 314 3.5 3.5 0.00 0.00 0.00 44 1011.1
20260507175314 64 264 3.5 5.2 0.00 0.00 0.00 43 1011.0
20260507174811 64 264 4.3 6.1 0.00 0.00 0.00 43 1011.4
20260507174309 65 336 4.3 7.0 0.00 0.00 0.00 41 1011.6
20260507173806 65 60 1.7 2.6 0.00 0.00 0.00 41 1011.5
20260507173303 62 5 0.0 2.6 0.00 0.00 0.00 46 1011.5
20260507172759 63 330 3.5 6.1 0.00 0.00 0.00 41 1011.8
20260507172256 63 320 0.0 2.6 0.00 0.00 0.00 51 1011.9
20260507171752 63 236 1.7 3.5 0.00 0.00 0.00 40 1011.9
20260507171249 62 262 0.9 2.6 0.00 0.00 0.00 43 1012.1
20260507170746 63 217 2.6 5.2 0.00 0.00 0.00 42 1012.2
20260507170243 62 323 1.7 5.2 0.00 0.00 0.00 46 1012.1
20260507165738 63 0 3.5 3.5 0.00 0.00 0.00 43 1012.2
20260507165235 62 278 3.5 3.5 0.00 0.00 0.00 46 1012.4
20260507164731 62 273 5.2 7.8 0.00 0.00 0.00 45 1012.3
20260507164228 61 245 5.2 6.1 0.00 0.00 0.00 43 1012.4
20260507163725 61 226 3.5 6.1 0.00 0.00 0.00 44 1012.5
20260507163223 61 317 2.6 3.5 0.00 0.00 0.00 46 1012.6
20260507162719 61 269 2.6 2.6 0.00 0.00 0.00 45 1012.6
20260507162215 61 348 0.0 0.9 0.00 0.00 0.00 43 1012.6
20260507161712 61 331 2.6 7.8 0.00 0.00 0.00 40 1012.7
20260507161208 61 339 4.3 5.2 0.00 0.00 0.00 50 1012.7
20260507160704 60 80 1.7 3.5 0.00 0.00 0.00 41 1013.0
20260507160201 61 355 2.6 5.2 0.00 0.00 0.00 47 1013.1
20260507155656 60 315 2.6 3.5 0.00 0.00 0.00 46 1013.4
20260507155153 60 316 2.6 5.2 0.00 0.00 0.00 45 1013.2
20260507154650 61 329 3.5 6.1 0.00 0.00 0.00 47 1013.3
20260507154148 59 325 2.6 3.5 0.00 0.00 0.00 49 1013.5
20260507153644 57 101 0.9 1.7 0.00 0.00 0.00 46 1013.3
20260507153140 58 341 0.9 3.5 0.00 0.00 0.00 52 1013.3
20260507152637 59 294 6.1 7.0 0.00 0.00 0.00 47 1013.2
20260507152132 59 319 1.7 7.0 0.00 0.00 0.00 51 1013.3
20260507151629 58 240 2.6 3.5 0.00 0.00 0.00 47 1013.3
20260507151126 57 282 5.2 8.7 0.00 0.00 0.00 51 1013.5
20260507150623 59 293 4.3 7.0 0.00 0.00 0.00 51 1013.5
20260507150120 60 335 5.2 6.1 0.00 0.00 0.00 49 1013.8
20260507145615 59 319 4.3 6.1 0.00 0.00 0.00 51 1013.6
20260507145113 58 282 7.8 8.7 0.00 0.00 0.00 48 1014.0
20260507144613 58 282 4.3 7.8 0.00 0.00 0.00 53 1014.0
20260507144112 59 263 7.0 7.8 0.00 0.00 0.00 47 1014.3
20260507143608 58 258 4.3 7.8 0.00 0.00 0.00 53 1014.1
20260507143106 57 355 3.5 5.2 0.00 0.00 0.00 50 1014.2
20260507142601 57 355 3.5 5.2 0.00 0.00 0.00 50 1014.4
20260507142058 57 337 6.1 7.0 0.00 0.00 0.00 52 1014.4
20260507141554 58 286 7.0 8.7 0.00 0.00 0.00 47 1014.1
20260507141051 56 301 5.2 7.0 0.00 0.00 0.00 56 1014.6
20260507140547 0 0.0 0.0 0.00 0.00 0.00 1014.7
20260507140045 0 0.0 0.0 0.00 0.00 0.00 1014.8
20260507135542 0 0.0 0.0 0.00 0.00 0.00 1014.7
20260507135039 0 0.0 0.0 0.00 0.00 0.00 1014.8
20260507134535 0 0.0 0.0 0.00 0.00 0.00 1014.9
20260507134031 0 0.0 0.0 0.00 0.00 0.00 1015.0
20260507133528 0 0.0 0.0 0.00 0.00 0.00 1014.9
20260507133026 54 278 5.2 7.0 0.00 0.00 0.00 54 1014.8
20260507132522 54 278 5.2 7.0 0.00 0.00 0.00 54 1014.9
20260507132018 0 0.0 0.0 0.00 0.00 0.00 1014.9
20260507131516 0 0.0 0.0 0.00 0.00 0.00 1014.9
20260507131013 0 0.0 0.0 0.00 0.00 0.00 1015.0
20260507130509 0 0.0 0.0 0.00 0.00 0.00 1015.1
20260507130008 0 0.0 0.0 0.00 0.00 0.00 1014.9
20260507125506 0 0.0 0.0 0.00 0.00 0.00 1014.9
20260507125003 0 0.0 0.0 0.00 0.00 0.00 1015.1
20260507124459 0 0.0 0.0 0.00 0.00 0.00 1015.0
20260507123957 53 285 3.5 5.2 0.00 0.00 0.00 63 1015.0
20260507123455 53 285 3.5 5.2 0.00 0.00 0.00 63 1015.1
20260507122951 0 0.0 0.0 0.00 0.00 0.00 1015.0
20260507122446 0 0.0 0.0 0.00 0.00 0.00 1014.9
20260507121943 0 0.0 0.0 0.00 0.00 0.00 1015.0
20260507121438 0 0.0 0.0 0.00 0.00 0.00 1015.1
20260507120935 0 0.0 0.0 0.00 0.00 0.00 1014.9
20260507120431 0 0.0 0.0 0.00 0.00 0.00 1014.8
20260507115928 0 0.0 0.0 0.00 0.00 0.00 1014.7
20260507115424 0 0.0 0.0 0.00 0.00 0.00 1014.9
20260507114920 0 0.0 0.0 0.00 0.00 0.00 1014.9
20260507114417 0 0.0 0.0 0.00 0.00 0.00 1014.7
20260507113914 0 0.0 0.0 0.00 0.00 0.00 1014.6
20260507113411 0 0.0 0.0 0.00 0.00 0.00 1014.7
20260507112908 0 0.0 0.0 0.00 0.00 0.00 1014.5
20260507112406 0 0.0 0.0 0.00 0.00 0.00 1014.5
20260507111904 0 0.0 0.0 0.00 0.00 0.00 1014.6
20260507111359 0 0.0 0.0 0.00 0.00 0.00 1014.7
20260507110855 0 0.0 0.0 0.00 0.00 0.00 1014.6
20260507110352 0 0.0 0.0 0.00 0.00 0.00 1014.6
20260507105849 0 0.0 0.0 0.00 0.00 0.00 1014.6
20260507105345 0 0.0 0.0 0.00 0.00 0.00 1014.4
20260507104842 0 0.0 0.0 0.00 0.00 0.00 1014.4
20260507104339 0 0.0 0.0 0.00 0.00 0.00 1014.4
20260507103835 0 0.0 0.0 0.00 0.00 0.00 1014.0
20260507103332 0 0.0 0.0 0.00 0.00 0.00 1013.9
20260507102828 0 0.0 0.0 0.00 0.00 0.00 1014.0
20260507102325 0 0.0 0.0 0.00 0.00 0.00 1013.9
20260507101822 0 0.0 0.0 0.00 0.00 0.00 1014.0
20260507101321 0 0.0 0.0 0.00 0.00 0.00 1014.0
20260507100819 0 0.0 0.0 0.00 0.00 0.00 1013.9
20260507100317 52 336 2.6 2.6 0.00 0.00 0.00 69 1013.9
20260507095815 52 336 2.6 2.6 0.00 0.00 0.00 69 1013.7
20260507095311 0 0.0 0.0 0.00 0.00 0.00 1013.7
20260507094808 0 0.0 0.0 0.00 0.00 0.00 1013.6
20260507094305 52 332 1.7 1.7 0.00 0.00 0.00 73 1013.4
20260507093802 52 332 1.7 1.7 0.00 0.00 0.00 73 1013.5
20260507093300 0 0.0 0.0 0.00 0.00 0.00 1013.4
20260507092758 52 343 0.9 1.7 0.00 0.00 0.00 72 1013.5
20260507092254 52 343 0.9 1.7 0.00 0.00 0.00 72 1013.4
20260507091750 52 331 1.7 2.6 0.00 0.00 0.00 72 1013.6
20260507091247 52 345 2.6 2.6 0.00 0.00 0.00 73 1013.6
20260507090742 52 327 1.7 2.6 0.00 0.00 0.00 74 1013.8
20260507090239 52 332 3.5 3.5 0.00 0.00 0.00 74 1013.6
20260507085736 53 332 2.6 2.6 0.00 0.00 0.00 76 1013.6
20260507085233 53 325 1.7 1.7 0.00 0.00 0.00 76 1013.9
20260507084730 53 347 1.7 1.7 0.00 0.00 0.00 78 1013.5
20260507084226 53 347 1.7 1.7 0.00 0.00 0.00 78 1013.6
20260507083724 53 322 1.7 1.7 0.00 0.00 0.00 79 1013.6
20260507083220 53 339 1.7 2.6 0.00 0.00 0.00 79 1013.6
20260507082716 53 314 0.9 0.9 0.00 0.00 0.00 80 1013.4
20260507082212 53 340 0.0 0.0 0.00 0.00 0.00 81 1013.6
20260507081709 53 340 0.0 0.0 0.00 0.00 0.00 81 1013.5
20260507081205 53 326 0.0 0.9 0.00 0.00 0.00 82 1013.4
20260507080702 53 338 0.0 0.0 0.00 0.00 0.00 82 1013.4
20260507080158 53 338 0.0 0.0 0.00 0.00 0.00 82 1013.1
20260507075654 53 328 1.7 1.7 0.00 0.00 0.00 80 1013.0
20260507075150 53 333 0.9 0.9 0.00 0.00 0.00 82 1013.2
20260507074647 53 331 1.7 1.7 0.00 0.00 0.00 81 1012.9
20260507074145 53 328 0.9 0.9 0.00 0.00 0.00 80 1012.9
20260507073641 53 323 0.0 0.9 0.00 0.00 0.00 82 1013.0
20260507073137 53 317 0.9 0.9 0.00 0.00 0.00 81 1013.0
20260507072636 53 326 0.9 1.7 0.00 0.00 0.00 82 1012.8
20260507072133 53 331 1.7 2.6 0.00 0.00 0.00 82 1012.9
20260507071630 53 335 0.9 1.7 0.00 0.00 0.00 81 1012.8
20260507071126 53 346 0.9 0.9 0.00 0.00 0.00 83 1012.8
20260507070623 53 330 0.9 1.7 0.00 0.00 0.00 83 1012.7
20260507070120 53 326 0.9 0.9 0.00 0.00 0.00 84 1012.8
20260507065616 53 331 0.9 1.7 0.00 0.00 0.00 84 1013.1
20260507065114 53 336 0.9 0.9 0.00 0.00 0.00 85 1012.9
20260507064611 54 330 0.9 1.7 0.00 0.00 0.00 84 1013.0
20260507064110 54 346 0.9 0.9 0.00 0.00 0.00 83 1013.0
20260507063607 54 19 0.0 0.0 0.00 0.00 0.00 84 1013.3
20260507063104 53 325 0.0 0.0 0.00 0.00 0.00 85 1013.4
20260507062600 53 298 0.0 0.0 0.00 0.00 0.00 85 1013.4
20260507062058 54 306 0.9 0.9 0.00 0.00 0.00 84 1013.3
20260507061556 54 273 0.9 1.7 0.00 0.00 0.00 82 1013.4
20260507061054 55 287 1.7 1.7 0.00 0.00 0.00 81 1013.6
20260507060551 55 284 1.7 2.6 0.00 0.00 0.00 79 1013.8
20260507060048 55 281 1.7 1.7 0.00 0.00 0.00 79 1013.7
20260507055548 55 284 1.7 2.6 0.00 0.00 0.00 79 1013.8
20260507055045 55 320 0.9 1.7 0.00 0.00 0.00 79 1013.6
20260507054541 55 301 0.9 1.7 0.00 0.00 0.00 79 1013.4
20260507054038 55 289 0.9 0.9 0.00 0.00 0.00 79 1013.3
20260507053536 55 299 1.7 3.5 0.00 0.00 0.00 78 1013.3
20260507053034 55 276 2.6 2.6 0.00 0.00 0.00 78 1013.2
20260507052531 55 319 1.7 3.5 0.00 0.00 0.00 79 1013.0
20260507052028 55 334 1.7 2.6 0.00 0.00 0.00 79 1013.1
20260507051526 55 336 1.7 1.7 0.00 0.00 0.00 79 1013.0
20260507051023 55 342 1.7 2.6 0.00 0.00 0.00 79 1013.1
20260507050519 55 346 0.9 0.9 0.00 0.00 0.00 81 1013.4
20260507050016 55 328 0.9 0.9 0.00 0.00 0.00 81 1013.2
20260507045512 55 333 1.7 3.5 0.00 0.00 0.00 82 1013.1
20260507045010 55 315 0.9 0.9 0.00 0.00 0.00 81 1012.9
20260507044506 55 323 0.0 0.9 0.00 0.00 0.00 80 1013.1
20260507044003 55 319 0.9 7.8 0.00 0.00 0.00 80 1013.1
20260507043459 55 290 1.7 5.2 0.00 0.00 0.00 80 1013.1
20260507042955 55 275 2.6 5.2 0.00 0.00 0.00 79 1013.0
20260507042452 55 331 2.6 7.0 0.00 0.00 0.00 81 1012.5
20260507041948 55 304 0.9 2.6 0.00 0.00 0.00 81 1012.8
20260507041445 55 323 1.7 2.6 0.00 0.00 0.00 82 1012.8
20260507040942 56 279 1.7 2.6 0.00 0.00 0.00 82 1013.0
20260507040437 56 286 3.5 3.5 0.00 0.00 0.00 81 1013.0
20260507035934 56 327 1.7 2.6 0.00 0.12 0.12 82 1013.5
20260507035430 56 285 1.7 3.5 0.00 0.12 0.12 83 1013.4
20260507034927 56 287 3.5 6.1 0.00 0.12 0.12 82 1012.9
20260507034424 56 313 2.6 3.5 0.00 0.12 0.12 84 1013.0
20260507033922 56 357 1.7 3.5 0.00 0.12 0.12 84 1012.8
20260507033420 56 332 2.6 3.5 0.00 0.12 0.12 84 1013.2
20260507032916 56 327 1.7 3.5 0.00 0.12 0.12 85 1013.0
20260507032414 56 290 2.6 2.6 0.00 0.12 0.12 85 1012.9
20260507031909 56 322 2.6 6.1 0.00 0.12 0.12 85 1013.1
20260507031406 56 340 3.5 5.2 0.00 0.12 0.12 85 1013.3
20260507030903 57 350 2.6 3.5 0.00 0.12 0.12 84 1012.9
20260507030400 57 318 0.9 5.2 0.00 0.12 0.12 83 1012.8
20260507025857 58 293 3.5 6.1 0.00 0.12 0.12 82 1013.0
20260507025354 58 321 0.9 3.5 0.00 0.12 0.12 83 1013.0
20260507024852 58 291 2.6 5.2 0.00 0.12 0.12 82 1012.5
20260507024349 58 335 2.6 6.1 0.00 0.12 0.12 82 1012.8
20260507023845 58 291 2.6 5.2 0.00 0.12 0.12 80 1012.7
20260507023342 58 291 2.6 5.2 0.00 0.12 0.12 80 1012.7
20260507022839 58 283 3.5 7.8 0.00 0.12 0.12 81 1012.6
20260507022335 58 278 4.3 7.8 0.00 0.12 0.12 80 1012.7
20260507021831 58 268 3.5 5.2 0.00 0.12 0.12 80 1012.6
20260507021327 59 330 3.5 6.1 0.00 0.12 0.12 80 1012.3
20260507020825 59 23 1.7 3.5 0.00 0.12 0.12 81 1012.4
20260507020321 59 321 0.9 1.7 0.00 0.12 0.12 82 1012.5
20260507015819 59 294 0.0 0.9 0.00 0.12 0.12 82 1012.3
20260507015316 59 356 1.7 2.6 0.00 0.12 0.12 81 1012.1
20260507014813 60 280 2.6 6.1 0.00 0.12 0.12 80 1012.2
20260507014310 60 336 0.9 1.7 0.00 0.12 0.12 80 1012.2
20260507013806 60 298 0.9 3.5 0.00 0.12 0.12 80 1012.2
20260507013303 60 336 3.5 5.2 0.00 0.12 0.12 80 1012.2
20260507012801 60 333 2.6 5.2 0.00 0.12 0.12 80 1011.9
20260507012256 60 316 3.5 5.2 0.00 0.12 0.12 79 1011.8
20260507011754 61 327 0.9 2.6 0.00 0.12 0.12 79 1011.9
20260507011250 61 281 6.1 7.8 0.00 0.12 0.12 77 1012.0
20260507010750 61 305 2.6 3.5 0.00 0.12 0.12 79 1011.6
20260507010246 61 328 0.9 0.9 0.00 0.12 0.12 81 1011.8
20260507005744 62 269 3.5 5.2 0.00 0.12 0.12 78 1012.1
20260507005240 62 283 5.2 6.1 0.00 0.12 0.12 78 1012.2
20260507004736 62 331 3.5 8.7 0.00 0.12 0.12 78 1012.1
20260507004235 62 264 4.3 6.1 0.00 0.12 0.12 80 1012.3
20260507003730 62 267 2.6 5.2 0.00 0.12 0.12 79 1012.0
20260507003226 62 303 1.7 2.6 0.00 0.12 0.12 80 1011.7
20260507002722 62 0 1.7 3.5 0.00 0.12 0.12 81 1011.9
20260507002218 62 289 4.3 5.2 0.00 0.12 0.12 80 1011.8
20260507001715 62 255 4.3 5.2 0.00 0.12 0.12 81 1011.9
20260507001212 63 276 2.6 7.0 0.00 0.12 0.12 81 1011.9
20260507000708 63 278 6.1 8.7 0.00 0.12 0.12 81 1011.8
20260507000205 63 279 2.6 7.0 0.00 0.12 0.12 82 1011.7
20260506235701 63 295 3.5 7.0 0.00 0.12 0.12 82 1011.6
20260506235157 63 283 3.5 7.0 0.00 0.12 0.12 82 1011.3
20260506234654 63 337 3.5 5.2 0.00 0.12 0.12 84 1011.0
20260506234151 64 323 3.5 3.5 0.00 0.12 0.12 84 1011.2
20260506233648 64 256 4.3 5.2 0.00 0.12 0.12 85 1011.1
20260506233145 64 273 3.5 7.0 0.00 0.12 0.12 84 1010.8
20260506232641 64 306 0.9 2.6 0.00 0.12 0.12 84 1010.8
20260506232137 64 266 1.7 3.5 0.00 0.12 0.12 83 1010.4
20260506231634 65 266 1.7 3.5 0.00 0.12 0.12 83 1010.8
20260506231133 65 285 3.5 5.2 0.00 0.12 0.12 82 1010.3
20260506230629 65 283 5.2 7.0 0.00 0.12 0.12 81 1010.3
20260506230126 65 294 4.3 7.0 0.00 0.12 0.12 81 1010.2
20260506225622 65 273 2.6 6.1 0.00 0.12 0.12 81 1010.3
20260506225119 65 269 4.3 8.7 0.00 0.12 0.12 81 1010.3
20260506224616 66 357 6.1 9.6 0.00 0.12 0.12 80 1010.1
20260506224112 66 276 7.0 7.8 0.00 0.12 0.12 81 1010.3
20260506223608 66 306 4.3 5.2 0.00 0.12 0.12 82 1010.2
20260506223105 66 334 2.6 7.0 0.00 0.12 0.12 83 1010.4
20260506222602 66 302 1.7 2.6 0.00 0.12 0.12 84 1010.2
20260506222058 67 286 0.9 5.2 0.00 0.12 0.12 85 1010.0
20260506221556 67 263 2.6 3.5 0.00 0.12 0.12 84 1010.0
20260506221054 67 305 2.6 5.2 0.00 0.12 0.12 83 1010.2
20260506220549 67 332 2.6 7.0 0.00 0.12 0.12 84 1009.8
20260506220045 68 255 4.3 6.1 0.00 0.12 0.12 83 1010.0
20260506215542 68 285 5.2 6.1 0.00 0.12 0.12 81 1009.7
20260506215038 68 290 3.5 7.8 0.00 0.12 0.12 82 1009.5
20260506214535 68 285 3.5 5.2 0.00 0.12 0.12 84 1009.6
20260506214032 68 310 2.6 5.2 0.00 0.12 0.12 85 1009.7
20260506213530 68 277 1.7 2.6 0.00 0.12 0.12 84 1009.5
20260506213027 68 301 0.9 2.6 0.00 0.12 0.12 87 1009.7
20260506212524 68 331 0.9 0.9 0.00 0.12 0.12 87 1009.4
20260506212019 69 262 1.7 1.7 0.00 0.12 0.12 86 1009.3
20260506211515 69 79 0.0 0.0 0.00 0.12 0.12 85 1009.1
20260506211012 69 91 0.0 0.0 0.00 0.12 0.12 84 1009.2
20260506210508 69 124 0.0 0.9 0.00 0.12 0.12 83 1009.0
20260506210005 69 75 1.7 2.6 0.00 0.12 0.12 83 1008.9
20260506205502 70 97 0.0 1.7 0.00 0.12 0.12 83 1008.9
20260506204957 70 66 0.0 0.0 0.00 0.12 0.12 82 1008.7
20260506204456 70 356 0.0 0.9 0.00 0.12 0.12 84 1008.8
20260506203953 69 89 0.0 0.9 0.00 0.12 0.12 86 1008.7
20260506203450 68 75 0.9 0.9 0.00 0.12 0.12 86 1008.6
20260506202947 68 62 0.0 0.0 0.00 0.12 0.12 89 1008.6
20260506202444 67 16 0.0 0.0 0.00 0.12 0.12 90 1008.9
20260506201940 67 14 0.0 0.9 0.00 0.12 0.12 89 1008.8
20260506201438 67 9 0.0 0.0 0.00 0.12 0.12 87 1008.7
20260506200934 67 68 0.0 0.0 0.00 0.12 0.12 88 1008.8
20260506200431 67 66 0.0 0.9 0.00 0.12 0.12 88 1008.6
20260506195927 67 75 0.9 1.7 0.00 0.12 0.12 87 1008.7
20260506195424 67 89 0.9 1.7 0.00 0.12 0.12 87 1008.7
20260506194921 67 26 0.0 0.9 0.00 0.12 0.12 88 1008.8
20260506194418 66 10 0.0 0.9 0.00 0.12 0.12 89 1008.9
20260506193915 66 352 0.0 0.9 0.00 0.12 0.12 89 1008.8
20260506193412 66 343 0.9 1.7 0.00 0.12 0.12 89 1009.1
20260506192908 67 347 0.9 1.7 0.00 0.12 0.12 88 1009.1
20260506192405 67 349 0.9 0.9 0.00 0.12 0.12 88 1008.9
20260506191902 67 346 1.7 1.7 0.00 0.12 0.12 87 1009.0
20260506191358 67 337 1.7 2.6 0.00 0.12 0.12 87 1009.0
20260506190855 68 348 0.9 2.6 0.00 0.12 0.12 87 1009.0
20260506190352 68 4 1.7 2.6 0.00 0.12 0.12 87 1009.1
20260506185849 68 0 1.7 3.5 0.00 0.12 0.12 86 1009.0
20260506185346 67 336 2.6 5.2 0.00 0.12 0.12 88 1009.0
20260506184843 68 340 4.3 5.2 0.00 0.12 0.12 87 1009.1
20260506184340 68 28 0.9 2.6 0.00 0.12 0.12 87 1009.0
20260506183837 69 358 1.7 2.6 0.00 0.12 0.12 87 1008.9